CST,Max TemperatureF,Mean TemperatureF,Min TemperatureF,Max Dew PointF,MeanDew PointF,Min DewpointF,Max Humidity, Mean Humidity, Min Humidity, Max Sea Level PressureIn, Mean Sea Level PressureIn, Min Sea Level PressureIn, Max VisibilityMiles, Mean VisibilityMiles, Min VisibilityMiles, Max Wind SpeedMPH, Mean Wind SpeedMPH, Max Gust SpeedMPH,PrecipitationIn, CloudCover, Events, WindDirDegrees
2011-11-1,71,58,46,45,40,37,76,50,33,30.13,30.07,30.00,10,10,10,17,8,26,0.00,0,,171
2011-11-2,69,56,44,57,47,36,93,63,39,30.05,29.98,29.86,10,9,4,21,10,28,0.01,5,,189
2011-11-3,51,44,37,41,32,28,93,64,41,30.22,30.13,29.98,10,10,4,21,14,31,0.00,7,,318
2011-11-4,62,47,32,43,34,28,87,65,42,30.25,30.18,30.10,10,10,10,8,4,,0.00,0,,59
2011-11-5,62,52,41,45,42,37,87,69,42,30.11,30.01,29.89,10,10,7,16,9,23,0.00,3,,154
2011-11-6,64,60,55,57,51,45,77,71,63,30.04,29.98,29.91,10,10,10,17,12,25,0.00,7,,177
2011-11-7,68,64,60,61,58,55,94,84,73,30.13,30.05,29.96,10,9,5,14,7,21,0.49,7,,160
2011-11-8,66,60,53,61,56,48,94,91,78,29.97,29.88,29.79,10,9,2,24,11,30,3.49,7,Thunderstorm,146
2011-11-9,53,46,39,45,33,27,93,65,35,30.30,30.17,29.92,10,10,5,20,12,28,0.00,4,,317
2011-11-10,55,42,28,30,27,23,93,59,30,30.35,30.28,30.17,10,10,9,15,4,21,0.00,0,,276
2011-11-11,64,50,35,32,29,27,75,46,26,30.13,30.02,29.93,10,10,9,23,8,29,0.00,0,,205
2011-11-12,64,57,50,52,38,25,72,51,35,29.92,29.79,29.69,10,10,10,24,14,33,0.00,0,,193
2011-11-13,73,68,62,54,52,48,72,60,41,29.69,29.66,29.63,10,10,10,22,16,33,0.00,0,,207
2011-11-14,69,60,51,61,51,39,94,68,42,29.84,29.75,29.65,10,10,4,20,13,28,0.18,4,,242
2011-11-15,69,60,51,63,57,50,94,89,73,29.83,29.77,29.72,10,10,6,12,5,16,0.42,7,,113
2011-11-16,57,45,33,54,30,14,88,59,29,30.34,30.07,29.84,10,10,10,18,11,25,0.00,3,,21
2011-11-17,46,36,26,32,25,19,100,67,34,30.43,30.35,30.24,10,10,7,8,4,,0.00,0,,234
2011-11-18,59,47,35,30,23,19,60,41,23,30.18,30.04,29.89,10,10,10,21,9,28,0.00,2,,179
2011-11-19,64,57,50,57,50,30,82,71,44,29.93,29.85,29.79,10,10,10,21,14,29,0.00,7,,188
2011-11-20,55,48,41,48,43,39,93,84,71,30.16,30.07,29.98,10,6,1,12,7,,0.41,8,Thunderstorm,6
2011-11-21,48,44,39,46,42,37,100,92,87,30.18,30.09,29.93,10,4,0,13,5,21,0.71,8,Thunderstorm,29
2011-11-22,48,45,42,46,43,41,93,91,87,30.18,29.99,29.83,10,7,1,16,9,22,0.01,8,,324
2011-11-23,60,51,42,43,40,37,87,73,48,30.28,30.23,30.17,10,8,5,7,3,,0.00,3,,176
2011-11-24,64,50,35,45,40,34,93,76,42,30.28,30.21,30.11,10,8,3,12,5,,0.00,0,,169
2011-11-25,62,52,42,46,43,39,93,71,45,30.11,30.01,29.91,10,10,8,18,8,26,0.00,1,,186
2011-11-26,60,50,41,55,46,34,94,82,70,30.08,29.90,29.78,10,9,2,17,11,28,0.27,8,,234
2011-11-27,42,38,35,30,26,25,70,66,60,30.17,30.14,30.07,10,10,10,16,11,25,0.00,8,,347
2011-11-28,42,37,32,28,26,23,80,67,53,30.11,30.04,29.95,10,10,10,13,8,17,0.00,4,,1
2011-11-29,48,38,28,32,26,21,86,65,42,30.19,30.10,29.99,10,10,10,16,8,21,0.00,0,,338
2011-11-30,51,38,24,25,19,10,93,53,19,30.20,30.13,30.05,10,10,9,8,2,,0.00,0,,166